Regional Weather Roundup
Issued by NWS Newport/Morehead, NC

Current Version | Previous Version | Text Only | Print | Product List | Glossary Off
Versions: 1 2 3 4 5 6 7 8 9 10 11 12 13 14 15 16 17 18 19 20 21 22 23 24 25 26 27 28 29 30 31 32 33 34 35 36 37 38 39 40 41 42 43 44 45 46 47 48 49 50
831 ASUS42 KMHX 280213 RWRMHX WEATHER ROUNDUP FOR EASTERN NORTH CAROLINA NATIONAL WEATHER SERVICE NEWPORT/MOREHEAD CITY NC 1000 PM EDT MON MAR 27 2017 NOTE: "FAIR" INDICATES FEW OR NO CLOUDS BELOW 12,000 FEET WITH NO SIGNIFICANT WEATHER AND/OR OBSTRUCTIONS TO VISIBILITY NCZ015>017-031-032-045>047-102-103-280300- NORTH COAST CITY SKY/WX TMP DP RH WIND PRES REMARKS EDENTON PTCLDY 65 56 71 S9 30.02 ELIZABETH CITY CLEAR 65 54 67 S10 30.02R KITTY HAWK NOT AVBL MANTEO PTCLDY 61 57 88 SW7 30.04S $$ NCZ045>047-081-094-103-104-280300- CENTRAL COAST CITY SKY/WX TMP DP RH WIND PRES REMARKS FRISCO CLEAR 70 58 65 SW12G17 30.05S $$ NCZ095-097-098-100-101-280300- SOUTHERN COAST CITY SKY/WX TMP DP RH WIND PRES REMARKS BEAUFORT CLEAR 66 60 81 S7 30.05S CEDAR ISLAND NOT AVBL JACKSONVILLE CLEAR 63 56 78 S5 30.04R PINEY ISLAND CLEAR N/A N/A N/A S3 30.04S WILMINGTON CLEAR 63 56 78 S5 30.05R $$ NCZ011>013-027>030-043-044-078>080-089-090>093-098-280300- COASTAL PLAIN CITY SKY/WX TMP DP RH WIND PRES REMARKS AHOSKIE N/A 63 55 76 S3 29.98 CLINTON CLOUDY 67 57 70 S7 30.03R ELIZABETHTOWN PTCLDY 66 56 70 S6 30.03S GOLDSBORO PTCLDY 68 57 67 S8 30.00R GREENVILLE CLEAR 68 54 60 S13 30.03R HAVELOCK CLEAR 63 55 75 S5 30.05S KENANSVILLE MOCLDY 66 55 68 S3 30.04R KINSTON PTCLDY 66 54 63 S9 30.03R NEW BERN CLEAR 63 56 78 S6 30.05R RICHLANDS PTCLDY 63 56 78 S7 30.05R ROCKY MOUNT PTCLDY 68 57 68 S8 30.01R WASHINGTON CLEAR 65 54 68 S7 30.03R WHITEVILLE CLOUDY 65 56 70 S5 30.04R $$ AMZ130-135-150-152-154-156-158-170-250-252-270-ANZ085-086-088-633-658-670-280300- MARINE OBSERVATIONS STATION/POSITION TIME TEMP WIND PRES WAVE SWELL AIR SEA DIR/SP/G HT/PER HT/PER (UTC) (F) (DEG/KT/KT) (MB) (FT/S) (FT/S) CHESAPEAKE LIGHT NOT AVBL 64 E VA BEACH 0150 55 49 180/ 10/ 12 1016.6 3/ 8 3/ 8 DUCK 0142 65 49 190/ 13/ 17 1016.1 2 E DUCK 0200 53 N/A 3/ 8 2/11 OREGON INLET 0142 59 61 170/ 8/ 10 1017.1 13E OREGON INLT 0148 54 N/A 5/10 5/10 HATTERAS CG 0148 190/ 6/ 11 N/A DIAMOND BUOY 0150 71 75 200/ 14/ 16 1017.8 4/ 9 3/ 9 CAPE LOOKOUT 0200 66 170/ 7/ 8 1017.4 BEAUFORT LAB 0148 65 60 180/ 6/ 7 1016.6 30 SE NEW RVR IN 0108 67 170/ 4/ 6 1017.4 30 SE NEW RVR IN 0143 66 N/A 4/ 9 2/11 27 SE WRIGHTSVLE 0108 70 67 200/ 8/ 12 1017.0 5 SE WRIGHTSVLE 0108 63 61 180/ 6/ 10 1017.2 225 S CAPE HAT 0150 68 72 100/ 8/ 10 1019.5 6/10 5/10 41 SE CHARLESTON 0150 72 72 160/ 12/ 14 1016.5 4/10 3/10 $$

USA.gov is the U.S. government's official web portal to all federal, state and local government web resources and services.